Home   Weather   Beersheba   Past weeks

Flag for Israel Past Weather in Beersheba, Israel — Yesterday and Last 2 Weeks

Now
52 °F

Clear.


Feels Like: 51 °F
Forecast: 48 / 71 °F
Wind: 5 mph from West

Location: Ben Gurion International Airport

Current Time: Feb 24, 2017 at 11:54:37 pm

Latest Report: Feb 24, 2017 at 11:20 pm


Visibility: 10 mi

Pressure: 30.24 "Hg

Humidity: 88%

Dew Point: 48 °F

Location of BeershebaLocation

Past Weather in Beersheba — Graph

°F

Beersheba Temperature Yesterday

Maximum temperature yesterday: 66 °F (at 2:50 pm)
Minimum temperature yesterday: 46 °F (at 3:50 am)
Average temperature yesterday: 56 °F

High & Low Weather Summary for the Past Weeks

 TemperatureHumidityPressure
High72 °F (Feb 10, 1:50 pm)94% (Feb 12, 2:20 am)30.39 "Hg (Feb 12, 2:20 am)
Low39 °F (Feb 19, 5:50 am)13% (Feb 19, 11:20 am)29.92 "Hg (Feb 11, 11:50 am)
Average54 °F69%30.11 "Hg
* Reported Feb 9 10:20 pm — Feb 24 10:20 pm, Beersheba, Weather by CustomWeather, © 2017

Note: Actual official high and low records may vary slightly from our data, if they occured in-between our weather recording intervals... More about our weather records

Advertising

Beersheba Weather History for the Previous 24 Hours

Scroll right to see more
 ConditionsComfort  
Time TempWeatherWind HumidityBarometerVisibility
10:20 pm
Fri, Feb 24
54 °FClear.2 mph88%30.24 "Hg10 mi
9:50 pm55 °FClear.2 mph82%30.24 "Hg10 mi
9:20 pm55 °FClear.3 mph88%30.24 "Hg10 mi
8:50 pm57 °FClear.3 mph82%30.24 "Hg10 mi
8:20 pm59 °FClear.5 mph77%30.24 "Hg10 mi
7:50 pm59 °FClear.5 mph77%30.24 "Hg10 mi
7:20 pm61 °FClear.3 mph72%30.21 "Hg10 mi
6:50 pm61 °FClear.3 mph68%30.21 "Hg10 mi
6:20 pm61 °FClear.5 mph72%30.21 "Hg10 mi
5:50 pm63 °FClear.6 mph68%30.21 "Hg10 mi
5:20 pm63 °FSunny.10 mph68%30.21 "Hg10 mi
4:50 pm64 °FSunny.10 mph64%30.21 "Hg10 mi
4:20 pm66 °FSunny.10 mph60%30.21 "Hg10 mi
3:50 pm66 °FPassing clouds.9 mph56%30.21 "HgN/A
3:20 pm66 °FPassing clouds.12 mph56%30.21 "HgN/A
2:50 pm66 °FPassing clouds.12 mph56%30.21 "HgN/A
2:20 pm66 °FPassing clouds.12 mph56%30.21 "HgN/A
1:50 pm68 °FPassing clouds.10 mph56%30.21 "HgN/A
1:20 pm68 °FSunny.10 mph53%30.21 "Hg10 mi
12:50 pm68 °FSunny.10 mph53%30.21 "Hg10 mi
12:20 pm68 °FSunny.9 mph49%30.24 "Hg10 mi
11:50 am68 °FSunny.6 mph49%30.24 "Hg10 mi
11:20 am68 °FSunny.5 mph43%30.24 "Hg10 mi
10:50 am66 °FSunny.5 mph49%30.27 "Hg10 mi
10:20 am64 °FSunny.3 mph56%30.27 "Hg10 mi
9:50 am63 °FSunny.6 mph59%30.27 "Hg10 mi
9:20 am61 °FSunny.2 mph63%30.27 "Hg10 mi
8:50 am57 °FClear.1 mph72%30.27 "Hg6 mi
8:20 am55 °FClear.1 mph72%30.27 "Hg6 mi
7:50 am52 °FClear.No wind82%30.27 "Hg6 mi
7:20 am48 °FClear.2 mph87%30.24 "Hg6 mi
6:50 am50 °FClear.3 mph88%30.24 "Hg4 mi
6:20 am48 °FClear.2 mph87%30.24 "Hg4 mi
5:50 am46 °FClear.3 mph93%30.24 "Hg5 mi
5:20 am46 °FClear.1 mph93%30.24 "Hg5 mi
4:50 am46 °FClear.1 mph93%30.24 "Hg5 mi
4:20 am48 °FClear.1 mph94%30.24 "Hg5 mi
3:50 am48 °FClear.1 mph94%30.24 "Hg5 mi
3:20 am48 °FClear.1 mph94%30.21 "Hg10 mi
2:50 am48 °FClear.1 mph87%30.21 "Hg10 mi
2:20 am50 °FClear.2 mph88%30.21 "Hg10 mi
1:50 am50 °FClear.1 mph88%30.24 "Hg10 mi
1:20 am50 °FClear.No wind88%30.24 "Hg10 mi
12:50 am52 °FPassing clouds.3 mph88%30.24 "HgN/A
12:20 am52 °FPassing clouds.2 mph88%30.24 "HgN/A
11:50 pm
Thu, Feb 23
52 °FPassing clouds.2 mph88%30.24 "HgN/A
11:20 pm52 °FPassing clouds.3 mph88%30.24 "HgN/A
Weather by CustomWeather, © 2017

See weather overviewHow to use our weather pages